Location: Selby
(38.0566°N, 122.2439°W)
Time: 06:58:56
(UTC+00:00)

Okean 2 Rocket - Pass Details

Date: 19 August 2024
Orbit: 613 x 638 km, 82.5° (Epoch: 19 September)

Event Time Altitude Azimuth Distance (km) Brightness Sun altitude
Rises 12:48:33 0° 188° (S) 2,919 6.2 -8.2°
Reaches altitude 10° 12:50:47 10° 190° (S) 2,012 5.4 -7.8°
Maximum altitude 12:55:15 80° 276° (W) 647 3.1 -6.9°
Drops below altitude 10° 12:59:44 10° 5° (N) 2,013 6.1 -6.1°
Sets 13:01:58 0° 6° (N) 2,921 6.9 -5.7°
